MQT5033 LOWI-EDDL

Flight info

Callsign MQT5033
Flight time N/A
Altitude 37000
Route MOGTI P66 KPT L608 TEDGO DCT HAREM DCT LOHRE/N0450F360 Z850 ARPEG/N0409F240 Z850 ADEMI T854 DOMUX DOMUX1A
Aircraft A320/M-SDE3FGHIRWY/LB1

Departure

Time 2026-05-06 16:03
Airport Innsbruck Airport (LOWI)

Arrival

Time N/A
Airport Düsseldorf Airport (EDDL)
Time Latitude Longitude Altitude Speed Heading
2026-05-06 16:03 47.28456 11.15943 5899 ft 293 kts 297°
2026-05-06 16:03 47.29390 11.13219 6815 ft 298 kts 296°
2026-05-06 16:04 47.30238 11.10468 8074 ft 289 kts 290°
2026-05-06 16:04 47.30817 11.07865 9228 ft 278 kts 278°
2026-05-06 16:04 47.31013 11.05090 10380 ft 267 kts 264°
2026-05-06 16:04 47.30918 11.02385 11399 ft 263 kts 263°
2026-05-06 16:05 47.30834 10.99703 12407 ft 260 kts 263°
2026-05-06 16:05 47.30772 10.97118 13399 ft 257 kts 263°
2026-05-06 16:05 47.30730 10.94503 14329 ft 253 kts 264°
2026-05-06 16:05 47.30709 10.91932 15239 ft 249 kts 264°
2026-05-06 16:06 47.30709 10.89489 16128 ft 244 kts 265°
2026-05-06 16:06 47.30730 10.87037 16927 ft 246 kts 266°
2026-05-06 16:06 47.30957 10.84405 17141 ft 275 kts 279°
2026-05-06 16:06 47.31744 10.81680 17355 ft 305 kts 296°
2026-05-06 16:07 47.33203 10.79051 17509 ft 336 kts 313°
2026-05-06 16:07 47.34924 10.76855 17640 ft 359 kts 315°
2026-05-06 16:07 47.36861 10.74365 17781 ft 380 kts 314°
2026-05-06 16:07 47.38650 10.72053 18092 ft 393 kts 316°
2026-05-06 16:08 47.40796 10.69696 18624 ft 401 kts 322°
2026-05-06 16:08 47.43181 10.67265 19276 ft 404 kts 321°
2026-05-06 16:08 47.45375 10.65046 19863 ft 408 kts 321°
2026-05-06 16:08 47.46932 10.63473 20298 ft 410 kts 321°
2026-05-06 16:09 47.49684 10.60689 21041 ft 415 kts 321°
2026-05-06 16:09 47.52070 10.58259 21653 ft 418 kts 320°
2026-05-06 16:09 47.54274 10.56004 22158 ft 422 kts 321°
2026-05-06 16:09 47.56437 10.53787 22625 ft 425 kts 321°
2026-05-06 16:10 47.58888 10.51278 23138 ft 429 kts 321°
2026-05-06 16:10 47.61351 10.48733 23608 ft 434 kts 321°
2026-05-06 16:10 47.63837 10.46150 24022 ft 438 kts 321°
2026-05-06 16:10 47.66156 10.43739 24430 ft 440 kts 321°
2026-05-06 16:11 47.68672 10.41123 24845 ft 443 kts 320°
2026-05-06 16:11 47.71197 10.38495 25282 ft 445 kts 320°
2026-05-06 16:11 47.73428 10.36174 25653 ft 447 kts 320°
2026-05-06 16:11 47.75721 10.33574 26036 ft 446 kts 316°
2026-05-06 16:12 47.78147 10.30673 26425 ft 449 kts 315°
2026-05-06 16:12 47.80543 10.27775 26834 ft 451 kts 315°
2026-05-06 16:12 47.82975 10.24808 27262 ft 453 kts 315°
2026-05-06 16:12 47.84896 10.22451 27625 ft 455 kts 314°
2026-05-06 16:13 47.87339 10.19455 28037 ft 457 kts 314°
2026-05-06 16:13 47.89798 10.16434 28470 ft 460 kts 314°
2026-05-06 16:13 47.91642 10.14166 28753 ft 462 kts 314°
2026-05-06 16:13 47.93375 10.12032 28998 ft 463 kts 314°
2026-05-06 16:14 47.98421 10.05871 29733 ft 467 kts 314°